Home > Weather > Minden > Past weeks

Flag for Germany Weather for the Past 2 Weeks in Minden, North Rhine-Westphalia, Germany

Now
48 °F

Scattered clouds.


Feels Like: 42 °F
Forecast: 43 / 51 °F
Wind: 15 mph from South

Location: Bueckeburg

Current Time: Apr 29, 2016 at 10:40:25 AM

Latest Report: Apr 29, 2016 at 9:20 AM


Visibility: N/A

Pressure: 29.95 "Hg

Humidity: 58%

Dew Point: 34 °F

Location of MindenLocation

Historic Weather in Minden — Graph

°F

Minden Temperature Yesterday

Maximum temperature yesterday: 48 °F (at 2:20 PM)
Minimum temperature yesterday: 36 °F (at 3:20 AM)
Average temperature yesterday: 42 °F

High & Low Weather Summary for the Past Weeks

 TemperatureHumidityPressure
High59 °F (Apr 14, 3:20 PM)100% (Apr 15, 10:20 PM)30.45 "Hg (Apr 15, 10:20 PM)
Low32 °F (Apr 21, 6:20 AM)36% (Apr 21, 6:20 PM)29.39 "Hg (Apr 26, 1:20 PM)
Average45 °F74%29.88 "Hg
* Reported Apr 14 9:04 AM — Apr 29 9:20 AM, Minden, Weather by CustomWeather, © 2016

Note: Actual official high and low records may vary slightly from our data, if they occured in-between our weather recording intervals... More about our weather records

Advertising

Minden Weather History for the Previous 24 Hours

Scroll right to see more
 ConditionsComfort  
Time TempWeatherWind HumidityBarometerVisibility
9:20 AM
Fri, Apr 29
48 °FScattered clouds.15 mph58%29.95 "HgN/A
8:20 AM43 °FScattered clouds.12 mph71%29.95 "HgN/A
7:20 AM41 °FBroken clouds.10 mph70%29.95 "HgN/A
6:20 AM39 °FPassing clouds.10 mph75%29.95 "HgN/A
5:20 AM39 °FChilly.10 mph81%29.95 "HgN/A
4:20 AM37 °FChilly.12 mph87%29.95 "HgN/A
3:20 AM37 °FChilly.9 mph87%29.95 "HgN/A
2:20 AM37 °FChilly.9 mph87%29.98 "HgN/A
1:20 AM37 °FChilly.9 mph87%29.98 "HgN/A
12:20 AM39 °FChilly.8 mph81%29.98 "HgN/A
11:20 PM
Thu, Apr 28
39 °FChilly.3 mph87%29.98 "HgN/A
10:20 PM39 °FChilly.6 mph87%29.98 "HgN/A
9:20 PM41 °FQuite cool.7 mph76%29.98 "HgN/A
8:20 PM43 °FQuite cool.8 mph71%29.95 "HgN/A
7:52 PM45 °FScattered clouds.6 mph66%29.95 "HgN/A
7:20 PM46 °FScattered clouds.8 mph62%29.95 "HgN/A
6:20 PM46 °FPassing clouds.9 mph66%29.95 "HgN/A
5:20 PM46 °FScattered clouds.6 mph66%29.95 "HgN/A
4:20 PM45 °FScattered showers. Scattered clouds.9 mph71%29.95 "HgN/A
3:20 PM46 °FScattered showers. Scattered clouds.16 mph62%29.95 "HgN/A
2:20 PM48 °FScattered showers. Scattered clouds.10 mph58%29.92 "HgN/A
1:20 PM45 °FScattered clouds.9 mph76%29.92 "HgN/A
12:20 PM46 °FRain showers. Partly sunny.13 mph62%29.92 "HgN/A
11:20 AM45 °FScattered clouds.15 mph76%29.92 "HgN/A
10:20 AM45 °FScattered clouds.14 mph71%29.89 "HgN/A
Weather by CustomWeather, © 2016

See weather overviewHow to use our weather pages